When you browse on this site, cookies collect data to enhance your experience and personalize the content and advertising you see.
Visit our Privacy Policy to learn more. By continuing to use the site, you agree to this use of cookies and data.
  • In Spain
  • List of Countries
  • For 7 days
  • Water Temperature
  • Satellite Maps
  • Weather Map
  • Weather Widgets
  • user-avatar
    Login

    Hourly Weather Kyzylorda

    Today, 21 June, Friday

    Time Temperature Precipitation Wind Pressure Humidity
    00:00 +28°C° 0 mm 3 mps 745 mmHg 19%
    01:00 +27°C° 0 mm 3 mps 745 mmHg 20%
    02:00 +27°C° 0 mm 3 mps 745 mmHg 21%
    03:00 +26°C° 0 mm 3 mps 745 mmHg 22%
    04:00 +26°C° 0 mm 3 mps 745 mmHg 24%
    05:00 +28°C° 0 mm 3 mps 745 mmHg 20%
    06:00 +29°C° 0 mm 3 mps 745 mmHg 17%
    07:00 +31°C° 0 mm 3 mps 745 mmHg 14%
    08:00 +34°C° 0 mm 3 mps 745 mmHg 14%
    09:00 +35°C° 0 mm 3 mps 745 mmHg 13%
    10:00 +36°C° 0 mm 3 mps 746 mmHg 12%
    11:00 +37°C° 0 mm 4 mps 745 mmHg 12%
    12:00 +37°C° 0 mm 4 mps 745 mmHg 12%
    13:00 +38°C° 0 mm 4 mps 744 mmHg 12%
    14:00 +39°C° 0 mm 5 mps 744 mmHg 12%
    15:00 +39°C° 0 mm 5 mps 744 mmHg 12%
    16:00 +39°C° 0 mm 5 mps 744 mmHg 12%
    17:00 +37°C° 0 mm 4 mps 744 mmHg 13%
    18:00 +36°C° 0 mm 4 mps 744 mmHg 15%
    19:00 +35°C° 0 mm 3 mps 744 mmHg 16%
    20:00 +34°C° 0 mm 3 mps 744 mmHg 17%
    21:00 +32°C° 0 mm 2 mps 744 mmHg 18%
    22:00 +30°C° 0 mm 2 mps 745 mmHg 20%
    23:00 +29°C° 0 mm 1 mps 745 mmHg 21%

    Tomorrow, 22 June, Saturday

    Time Temperature Precipitation Wind Pressure Humidity
    00:00 +29°C° 0 mm 1 mps 745 mmHg 22%
    01:00 +28°C° 0 mm 1 mps 745 mmHg 23%
    02:00 +27°C° 0 mm 1 mps 745 mmHg 24%
    03:00 +27°C° 0 mm 1 mps 745 mmHg 24%
    04:00 +26°C° 0 mm 1 mps 745 mmHg 25%
    05:00 +28°C° 0 mm 1 mps 745 mmHg 23%
    06:00 +30°C° 0 mm 1 mps 746 mmHg 20%
    07:00 +32°C° 0 mm 1 mps 746 mmHg 18%
    08:00 +34°C° 0 mm 2 mps 746 mmHg 17%
    09:00 +35°C° 0 mm 2 mps 747 mmHg 16%
    10:00 +37°C° 0 mm 3 mps 747 mmHg 15%
    11:00 +37°C° 0 mm 3 mps 747 mmHg 14%
    12:00 +38°C° 0 mm 3 mps 747 mmHg 13%
    13:00 +40°C° 0 mm 4 mps 747 mmHg 12%
    14:00 +40°C° 0 mm 4 mps 747 mmHg 12%
    15:00 +40°C° 0 mm 5 mps 746 mmHg 12%
    16:00 +40°C° 0 mm 6 mps 746 mmHg 12%
    17:00 +39°C° 0 mm 6 mps 746 mmHg 14%
    18:00 +38°C° 0 mm 6 mps 746 mmHg 15%
    19:00 +36°C° 0 mm 6 mps 746 mmHg 17%
    20:00 +35°C° 0 mm 5 mps 747 mmHg 18%
    21:00 +34°C° 0 mm 5 mps 747 mmHg 19%
    22:00 +32°C° 0 mm 5 mps 748 mmHg 19%
    23:00 +32°C° 0 mm 6 mps 748 mmHg 22%

    Day after tomorrow, 23 June, Sunday

    Time Temperature Precipitation Wind Pressure Humidity
    00:00 +30°C° 0 mm 7 mps 748 mmHg 25%
    01:00 +31°C° 0 mm 8 mps 748 mmHg 27%
    02:00 +29°C° 0 mm 8 mps 748 mmHg 29%
    03:00 +28°C° 0 mm 7 mps 749 mmHg 31%
    04:00 +27°C° 0 mm 7 mps 749 mmHg 33%
    05:00 +28°C° 0 mm 7 mps 749 mmHg 29%
    06:00 +28°C° 0 mm 8 mps 750 mmHg 26%
    07:00 +29°C° 0 mm 8 mps 750 mmHg 23%
    08:00 +31°C° 0 mm 8 mps 750 mmHg 22%
    09:00 +32°C° 0 mm 8 mps 750 mmHg 20%
    10:00 +34°C° 0 mm 8 mps 750 mmHg 18%
    11:00 +34°C° 0 mm 7 mps 750 mmHg 17%
    12:00 +35°C° 0 mm 7 mps 750 mmHg 15%
    13:00 +36°C° 0 mm 7 mps 750 mmHg 14%
    14:00 +36°C° 0 mm 7 mps 750 mmHg 14%
    15:00 +36°C° 0 mm 7 mps 750 mmHg 13%
    16:00 +36°C° 0 mm 7 mps 750 mmHg 13%
    17:00 +35°C° 0 mm 7 mps 750 mmHg 13%
    18:00 +34°C° 0 mm 6 mps 750 mmHg 14%
    19:00 +33°C° 0 mm 6 mps 750 mmHg 14%
    20:00 +30°C° 0 mm 5 mps 750 mmHg 15%
    21:00 +29°C° 0 mm 5 mps 750 mmHg 15%
    22:00 +28°C° 0 mm 5 mps 750 mmHg 16%
    23:00 +27°C° 0 mm 5 mps 750 mmHg 17%

    24 June, Monday

    Time Temperature Precipitation Wind Pressure Humidity
    00:00 +26°C° 0 mm 5 mps 750 mmHg 18%
    01:00 +25°C° 0 mm 5 mps 750 mmHg 19%
    02:00 +25°C° 0 mm 5 mps 750 mmHg 21%
    03:00 +23°C° 0 mm 5 mps 750 mmHg 22%
    04:00 +22°C° 0 mm 5 mps 750 mmHg 24%
    05:00 +23°C° 0 mm 5 mps 750 mmHg 22%
    06:00 +26°C° 0 mm 6 mps 750 mmHg 21%
    07:00 +27°C° 0 mm 6 mps 750 mmHg 19%
    08:00 +29°C° 0 mm 7 mps 750 mmHg 17%
    09:00 +32°C° 0 mm 7 mps 750 mmHg 15%
    10:00 +33°C° 0 mm 7 mps 750 mmHg 13%
    11:00 +35°C° 0 mm 7 mps 749 mmHg 12%
    12:00 +36°C° 0 mm 7 mps 749 mmHg 11%
    13:00 +38°C° 0 mm 7 mps 749 mmHg 10%
    14:00 +38°C° 0 mm 7 mps 749 mmHg 10%
    15:00 +38°C° 0 mm 7 mps 748 mmHg 10%
    16:00 +38°C° 0 mm 7 mps 748 mmHg 10%
    17:00 +36°C° 0 mm 6 mps 748 mmHg 12%
    18:00 +35°C° 0 mm 5 mps 748 mmHg 14%
    19:00 +34°C° 0 mm 5 mps 748 mmHg 17%
    20:00 +33°C° 0 mm 4 mps 748 mmHg 19%
    21:00 +30°C° 0 mm 3 mps 748 mmHg 21%
    22:00 +29°C° 0 mm 3 mps 748 mmHg 23%
    23:00 +29°C° 0 mm 2 mps 748 mmHg 24%

    25 June, Tuesday

    Time Temperature Precipitation Wind Pressure Humidity
    00:00 +28°C° 0 mm 2 mps 748 mmHg 26%
    01:00 +27°C° 0 mm 2 mps 748 mmHg 27%
    02:00 +27°C° 0 mm 2 mps 748 mmHg 27%
    03:00 +27°C° 0 mm 2 mps 747 mmHg 27%
    04:00 +27°C° 0 mm 2 mps 747 mmHg 27%
    05:00 +29°C° 0 mm 3 mps 748 mmHg 24%
    06:00 +31°C° 0 mm 3 mps 748 mmHg 21%
    07:00 +34°C° 0 mm 4 mps 748 mmHg 19%
    08:00 +35°C° 0 mm 4 mps 748 mmHg 18%
    09:00 +36°C° 0 mm 4 mps 748 mmHg 17%
    10:00 +38°C° 0 mm 4 mps 747 mmHg 16%
    11:00 +38°C° 0 mm 4 mps 747 mmHg 15%
    12:00 +40°C° 0 mm 4 mps 747 mmHg 15%
    13:00 +41°C° 0 mm 4 mps 746 mmHg 14%
    14:00 +41°C° 0 mm 4 mps 746 mmHg 14%
    15:00 +42°C° 0 mm 5 mps 745 mmHg 14%
    16:00 +42°C° 0 mm 5 mps 745 mmHg 14%
    17:00 +41°C° 0 mm 4 mps 745 mmHg 15%
    18:00 +40°C° 0 mm 4 mps 745 mmHg 16%
    19:00 +38°C° 0 mm 3 mps 745 mmHg 18%
    20:00 +37°C° 0 mm 4 mps 745 mmHg 19%
    21:00 +36°C° 0 mm 4 mps 745 mmHg 20%
    22:00 +35°C° 0 mm 5 mps 745 mmHg 22%
    23:00 +34°C° 0 mm 4 mps 744 mmHg 23%

    26 June, Wednesday

    Time Temperature Precipitation Wind Pressure Humidity
    00:00 +33°C° 0 mm 4 mps 744 mmHg 25%
    01:00 +33°C° 0 mm 3 mps 744 mmHg 26%
    02:00 +31°C° 0 mm 3 mps 744 mmHg 27%
    03:00 +31°C° 0 mm 3 mps 744 mmHg 28%
    04:00 +31°C° 0 mm 3 mps 744 mmHg 29%
    05:00 +33°C° 0 mm 3 mps 744 mmHg 27%
    06:00 +35°C° 0 mm 3 mps 744 mmHg 25%
    07:00 +36°C° 0 mm 4 mps 744 mmHg 23%
    08:00 +37°C° 0 mm 3 mps 743 mmHg 21%
    09:00 +38°C° 0 mm 2 mps 743 mmHg 19%
    10:00 +39°C° 0 mm 2 mps 743 mmHg 16%
    11:00 +40°C° 0 mm 1 mps 743 mmHg 16%
    12:00 +40°C° 0 mm 1 mps 742 mmHg 15%
    13:00 +40°C° 0 mm 1 mps 742 mmHg 15%
    14:00 +39°C° 0 mm 5 mps 742 mmHg 20%
    15:00 +37°C° 0 mm 8 mps 742 mmHg 26%
    16:00 +33°C° 0 mm 12 mps 742 mmHg 32%
    17:00 +33°C° 0.1 mm 9 mps 742 mmHg 33%
    18:00 +32°C° 0.1 mm 7 mps 742 mmHg 34%
    19:00 +32°C° 0.1 mm 5 mps 742 mmHg 35%
    20:00 +30°C° 0 mm 4 mps 742 mmHg 35%
    21:00 +30°C° 0 mm 4 mps 742 mmHg 36%
    22:00 +30°C° 0 mm 3 mps 742 mmHg 36%
    23:00 +29°C° 0 mm 3 mps 742 mmHg 39%
    Show more